Kremmling, CO

7:11 AM MDT on May 25, 2017 (GMT -0600)
Kremmling

Weather History for K20V - September, 2012

Change the Weather History Date:

Friday, September 21, 2012

  Actual Average Record
Temperature  
Mean Temperature 54 °F -  
Max Temperature 77 °F - 80 °F (2007)
Min Temperature 30 °F - 24 °F (2003)
Degree Days  
Heating Degree Days 12    
Month to date heating degree days  
Cooling Degree Days 0    
Month to date cooling degree days  
Growing Degree Days 4 (Base 50)    
Moisture  
Dew Point 17 °F    
Average Humidity 35    
Maximum Humidity 75    
Minimum Humidity 5    
Precipitation  
Precipitation 0.00 in - 1.39 in (2004)
Sea Level Pressure  
Sea Level Pressure 30.36 in    
Wind  
Wind Speed 1 mph (NW)    
Max Wind Speed 9 mph    
Max Gust Speed 17 mph    
Visibility 10 miles    
Events      
T = Trace of Precipitation, MM = Missing Value Source: NWS Daily Summary

Daily Weather History Graph

Daily Weather History Graph

Search for Another Location

Airport or City:

Trip Planner

Search our weather history database for the weather conditions in past years. The results will help you decide how hot, cold, wet, or windy it might be!

Date:

Astronomy

Sep. 21, 2012 Rise Set
Actual Time 6:52 AM MDT 7:03 PM MDT
Civil Twilight 6:25 AM MDT 7:30 PM MDT
Nautical Twilight 5:53 AM MDT 8:01 PM MDT
Astronomical Twilight 5:21 AM MDT 8:34 PM MDT
Moon 1:16 PM MDT (9/21) 11:07 PM MDT (9/21)
Length of Visible Light 13h 04m
Length of Day
12h 10m
Waxing Crescent, 38% of the Moon is Illuminated
Sep 21
Waxing Crescent
Sep 22
First Quarter
Sep 29
Full
Oct 8
Last Quarter
Oct 15
New

Hourly Weather History & Observations

Time (MDT) Temp. Dew Point Humidity Pressure Visibility Wind Dir Wind Speed Gust Speed Precip Events Conditions
12:15 AM 41.0 °F 23.0 °F 49% 30.36 in 10.0 mi Calm Calm - N/A   Clear
12:35 AM 41.0 °F 23.0 °F 49% 30.36 in 10.0 mi Calm Calm - N/A   Clear
12:55 AM 41.0 °F 21.2 °F 45% 30.36 in 10.0 mi Calm Calm - N/A   Clear
1:15 AM 37.4 °F 23.0 °F 56% 30.36 in 10.0 mi Calm Calm - N/A   Clear
1:35 AM 37.4 °F 26.6 °F 65% 30.37 in 10.0 mi Calm Calm - N/A   Clear
1:55 AM 37.4 °F 23.0 °F 56% 30.37 in 10.0 mi Calm Calm - N/A   Clear
2:15 AM 35.6 °F 21.2 °F 56% 30.37 in 10.0 mi Calm Calm - N/A   Clear
2:35 AM 35.6 °F 23.0 °F 60% 30.37 in 10.0 mi Calm Calm - N/A   Clear
2:55 AM 35.6 °F 21.2 °F 56% 30.37 in 10.0 mi Calm Calm - N/A   Clear
3:15 AM 33.8 °F 21.2 °F 60% 30.37 in 10.0 mi Calm Calm - N/A   Clear
3:35 AM 33.8 °F 21.2 °F 60% 30.38 in 10.0 mi Calm Calm - N/A   Clear
3:55 AM 33.8 °F 26.6 °F 75% 30.38 in 10.0 mi Calm Calm - N/A   Clear
4:15 AM 33.8 °F 21.2 °F 60% 30.38 in 10.0 mi Calm Calm - N/A   Clear
4:35 AM 32.0 °F 19.4 °F 60% 30.38 in 10.0 mi Calm Calm - N/A   Clear
4:55 AM 32.0 °F 21.2 °F 64% 30.39 in 7.0 mi Calm Calm - N/A   Clear
5:15 AM 32.0 °F 21.2 °F 64% 30.39 in 10.0 mi Calm Calm - N/A   Clear
5:34 AM 32.0 °F 21.2 °F 64% 30.40 in 10.0 mi Calm Calm - N/A   Clear
5:54 AM 32.0 °F 21.2 °F 64% 30.40 in 10.0 mi Calm Calm - N/A   Clear
6:34 AM 30.2 °F 21.2 °F 69% 30.40 in 10.0 mi Calm Calm - N/A   Clear
6:55 AM 30.2 °F 21.2 °F 69% 30.41 in 10.0 mi Calm Calm - N/A   Clear
7:15 AM 30.2 °F 19.4 °F 64% 30.42 in 10.0 mi Calm Calm - N/A   Clear
7:35 AM 30.2 °F 21.2 °F 69% 30.42 in 10.0 mi Calm Calm - N/A   Clear
7:55 AM 32.0 °F 23.0 °F 69% 30.42 in 10.0 mi Calm Calm - N/A   Clear
8:15 AM 33.8 °F 23.0 °F 65% 30.42 in 10.0 mi Calm Calm - N/A   Clear
8:35 AM 35.6 °F 23.0 °F 60% 30.43 in 10.0 mi Calm Calm - N/A   Clear
8:55 AM 37.4 °F 23.0 °F 56% 30.43 in 10.0 mi Calm Calm - N/A   Clear
9:14 AM 41.0 °F 21.2 °F 45% 30.43 in 10.0 mi Calm Calm - N/A   Clear
9:35 AM 42.8 °F 21.2 °F 42% 30.43 in 10.0 mi Calm Calm - N/A   Clear
9:54 AM 46.4 °F 23.0 °F 40% 30.43 in 10.0 mi Calm Calm - N/A   Clear
10:15 AM 50.0 °F 23.0 °F 35% 30.42 in 10.0 mi Calm Calm - N/A   Clear
10:35 AM 51.8 °F 21.2 °F 30% 30.42 in 10.0 mi Calm Calm - N/A   Clear
10:55 AM 53.6 °F 21.2 °F 28% 30.41 in 10.0 mi Calm Calm - N/A   Clear
11:15 AM 55.4 °F 21.2 °F 26% 30.41 in 10.0 mi Calm Calm - N/A   Clear
11:35 AM 59.0 °F 21.2 °F 23% 30.39 in 10.0 mi Calm Calm - N/A   Clear
11:54 AM 60.8 °F 21.2 °F 22% 30.39 in 10.0 mi NW 3.5 mph - N/A   Clear
12:15 PM 60.8 °F 21.2 °F 22% 30.38 in 10.0 mi Calm Calm - N/A   Clear
12:35 PM 64.4 °F 19.4 °F 18% 30.36 in 10.0 mi Calm Calm - N/A   Clear
12:55 PM 68.0 °F 21.2 °F 17% 30.36 in 10.0 mi WNW 3.5 mph - N/A   Clear
1:15 PM 69.8 °F 17.6 °F 14% 30.35 in 10.0 mi Calm Calm - N/A   Clear
1:35 PM 73.4 °F 14.0 °F 10% 30.33 in 10.0 mi Calm Calm - N/A   Clear
1:55 PM 73.4 °F 10.4 °F 9% 30.32 in 10.0 mi South 3.5 mph - N/A   Clear
2:15 PM 73.4 °F 10.4 °F 9% 30.31 in 10.0 mi North 5.8 mph - N/A   Clear
2:35 PM 73.4 °F 8.6 °F 8% 30.31 in 10.0 mi Calm Calm - N/A   Clear
2:55 PM 77.0 °F 8.6 °F 7% 30.30 in 10.0 mi SSW 3.5 mph - N/A   Clear
3:15 PM 77.0 °F 6.8 °F 7% 30.29 in 10.0 mi SW 4.6 mph - N/A   Clear
3:35 PM 77.0 °F 3.2 °F 6% 30.29 in 10.0 mi NW 4.6 mph - N/A   Clear
3:54 PM 77.0 °F 1.4 °F 5% 30.28 in 10.0 mi North 9.2 mph 17.3 mph N/A   Clear
4:15 PM 77.0 °F 1.4 °F 5% 30.28 in 10.0 mi NNW 5.8 mph - N/A   Clear
4:35 PM 77.0 °F 1.4 °F 5% 30.28 in 10.0 mi North 5.8 mph - N/A   Clear
4:55 PM 75.2 °F 3.2 °F 6% 30.28 in 10.0 mi NW 8.1 mph 17.3 mph N/A   Clear
5:15 PM 73.4 °F 1.4 °F 6% 30.28 in 10.0 mi NNW 9.2 mph - N/A   Clear
5:35 PM 73.4 °F 3.2 °F 6% 30.28 in 10.0 mi NNW 6.9 mph - N/A   Clear
5:55 PM 73.4 °F 5.0 °F 7% 30.29 in 10.0 mi NW 6.9 mph - N/A   Clear
6:15 PM 71.6 °F 5.0 °F 7% 30.29 in 10.0 mi NNW 8.1 mph - N/A   Clear
6:35 PM 69.8 °F 5.0 °F 8% 30.29 in 10.0 mi NNW 6.9 mph - N/A   Clear
6:55 PM 69.8 °F 6.8 °F 9% 30.30 in 10.0 mi NNW 6.9 mph - N/A   Clear
7:14 PM 64.4 °F 10.4 °F 12% 30.30 in 10.0 mi West 3.5 mph - N/A   Clear
7:35 PM 60.8 °F 10.4 °F 14% 30.31 in 10.0 mi WNW 3.5 mph - N/A   Clear
7:55 PM 59.0 °F 14.0 °F 17% 30.31 in 10.0 mi Calm Calm - N/A   Clear
8:14 PM 55.4 °F 12.2 °F 18% 30.32 in 10.0 mi SSE 3.5 mph - N/A   Clear
8:35 PM 55.4 °F 14.0 °F 20% 30.32 in 10.0 mi Calm Calm - N/A   Clear
8:55 PM 59.0 °F 15.8 °F 19% 30.33 in 10.0 mi Calm Calm - N/A   Clear
9:14 PM 53.6 °F 17.6 °F 24% 30.33 in 10.0 mi Calm Calm - N/A   Clear
9:35 PM 50.0 °F 17.6 °F 28% 30.34 in 10.0 mi Calm Calm - N/A   Clear
9:54 PM 50.0 °F 17.6 °F 28% 30.34 in 10.0 mi Calm Calm - N/A   Clear
10:15 PM 50.0 °F 19.4 °F 30% 30.35 in 10.0 mi Calm Calm - N/A   Clear
10:35 PM 46.4 °F 19.4 °F 34% 30.36 in 10.0 mi Calm Calm - N/A   Clear
10:55 PM 48.2 °F 21.2 °F 34% 30.36 in 10.0 mi SW 3.5 mph - N/A   Clear
11:15 PM 46.4 °F 21.2 °F 37% 30.37 in 10.0 mi Calm Calm - N/A   Clear
11:35 PM 50.0 °F 21.2 °F 32% 30.37 in 10.0 mi Calm Calm - N/A   Clear
11:55 PM 44.6 °F 21.2 °F 39% 30.38 in 10.0 mi Calm Calm - N/A   Clear